0608900041,1996,05,01,00,4.25
0608900041,1996,05,01,01,4.18
0608900041,1996,05,01,02,3.88
0608900041,1996,05,01,03,3.36
0608900041,1996,05,01,04,2.53
0608900041,1996,05,01,05,1.79
0608900041,1996,05,01,06,1.76
0608900041,1996,05,01,07,1.82
0608900041,1996,05,01,08,2.22
0608900041,1996,05,01,09,3.36
0608900041,1996,05,01,10,4.32
0608900041,1996,05,01,11,4.65
0608900041,1996,05,01,12,4.63
0608900041,1996,05,01,13,4.8
0608900041,1996,05,01,14,4.84
0608900041,1996,05,01,15,4.49
0608900041,1996,05,01,16,4.52
0608900041,1996,05,01,17,4.5
0608900041,1996,05,01,18,4.58
0608900041,1996,05,01,19,4.88
0608900041,1996,05,01,20,5.12
0608900041,1996,05,01,21,4.93
0608900041,1996,05,01,22,4.68
0608900041,1996,05,01,23,4.34
0608900041,1996,05,02,00,4.14
0608900041,1996,05,02,01,4.34
0608900041,1996,05,02,02,4.77
0608900041,1996,05,02,03,3.16
0608900041,1996,05,02,04,2.23
0608900041,1996,05,02,05,1.92
0608900041,1996,05,02,06,1.81
0608900041,1996,05,02,07,1.85
0608900041,1996,05,02,08,1.88
0608900041,1996,05,02,09,3.12
0608900041,1996,05,02,10,4.3
0608900041,1996,05,02,11,5.29
0608900041,1996,05,02,12,5.02
0608900041,1996,05,02,13,5.05
0608900041,1996,05,02,14,5.01
0608900041,1996,05,02,15,4.84
0608900041,1996,05,02,16,5.33
0608900041,1996,05,02,17,5.7
0608900041,1996,05,02,18,6.25
0608900041,1996,05,02,19,7.03
0608900041,1996,05,02,20,7.15
0608900041,1996,05,02,21,7.06
0608900041,1996,05,02,22,7.17
0608900041,1996,05,02,23,7.08
0608900041,1996,05,03,00,6.69
0608900041,1996,05,03,01,6.64
0608900041,1996,05,03,02,6.41
0608900041,1996,05,03,03,5.55
0608900041,1996,05,03,04,2.75
0608900041,1996,05,03,05,1.75
0608900041,1996,05,03,06,1.85
0608900041,1996,05,03,07,2.72
0608900041,1996,05,03,09,6.28
0608900041,1996,05,03,10,6.6
0608900041,1996,05,03,11,6.98
0608900041,1996,05,03,12,7.06
0608900041,1996,05,03,13,7.01
0608900041,1996,05,03,14,7.04
0608900041,1996,05,03,15,7.12
0608900041,1996,05,03,16,7.22
0608900041,1996,05,03,17,7.33
0608900041,1996,05,03,18,7.02
0608900041,1996,05,03,19,6.33
0608900041,1996,05,03,20,6.29
0608900041,1996,05,03,21,6.49
0608900041,1996,05,03,22,5.9
0608900041,1996,05,03,23,5.84
0608900041,1996,05,04,00,5.78
0608900041,1996,05,04,01,5.86
0608900041,1996,05,04,02,5.78
0608900041,1996,05,04,03,5.75
0608900041,1996,05,04,04,5.79
0608900041,1996,05,04,05,5.67
0608900041,1996,05,04,06,5.59
0608900041,1996,05,04,07,5.57
0608900041,1996,05,04,08,5.73
0608900041,1996,05,04,09,5.83
0608900041,1996,05,04,10,6.07
0608900041,1996,05,04,11,6.52
0608900041,1996,05,04,12,7.47
0608900041,1996,05,04,13,7.85
0608900041,1996,05,04,14,7.97
0608900041,1996,05,04,15,7.88
0608900041,1996,05,04,16,7.86
0608900041,1996,05,04,17,7.72
0608900041,1996,05,04,18,7.3
0608900041,1996,05,04,19,4.9
0608900041,1996,05,04,20,4.28
0608900041,1996,05,04,21,3.75
0608900041,1996,05,04,22,4.25
0608900041,1996,05,04,23,4.01
0608900041,1996,05,05,00,3.88
0608900041,1996,05,05,01,3.87
0608900041,1996,05,05,02,4.05
0608900041,1996,05,05,03,4.3
0608900041,1996,05,05,04,3.57
0608900041,1996,05,05,05,2.63
0608900041,1996,05,05,06,2.89
0608900041,1996,05,05,07,4.47
0608900041,1996,05,05,08,6.2
0608900041,1996,05,05,09,6.67
0608900041,1996,05,05,10,7.06
0608900041,1996,05,05,11,7.1
0608900041,1996,05,05,12,7.07
0608900041,1996,05,05,13,7.34
0608900041,1996,05,05,14,7.35
0608900041,1996,05,05,15,7.35
0608900041,1996,05,05,16,7.39
0608900041,1996,05,05,17,7.18
0608900041,1996,05,05,18,6.82
0608900041,1996,05,05,19,4.95
0608900041,1996,05,05,20,3.68
0608900041,1996,05,05,21,3.47
0608900041,1996,05,05,22,3.83
0608900041,1996,05,05,23,4.22
0608900041,1996,05,06,00,3.97
0608900041,1996,05,06,01,5.21
0608900041,1996,05,06,02,3.66
0608900041,1996,05,06,03,2.39
0608900041,1996,05,06,04,2.33
0608900041,1996,05,06,05,2.02
0608900041,1996,05,06,06,3.89
0608900041,1996,05,06,08,3.27
0608900041,1996,05,06,09,4.14
0608900041,1996,05,06,10,4.34
0608900041,1996,05,06,11,5.75
0608900041,1996,05,06,12,6.35
0608900041,1996,05,06,13,6.08
0608900041,1996,05,06,14,5.99
0608900041,1996,05,06,15,5.96
0608900041,1996,05,06,16,6.15
0608900041,1996,05,06,17,6.38
0608900041,1996,05,06,18,6.33
0608900041,1996,05,06,19,3.91
0608900041,1996,05,06,20,3.36
0608900041,1996,05,06,21,2.39
0608900041,1996,05,06,22,1.99
0608900041,1996,05,06,23,2.69
0608900041,1996,05,07,00,2.48
0608900041,1996,05,07,01,1.6
0608900041,1996,05,07,02,0.96
0608900041,1996,05,07,03,1.39
0608900041,1996,05,07,04,1.31
0608900041,1996,05,07,05,0.87
0608900041,1996,05,07,06,0.98
0608900041,1996,05,07,07,1.42
0608900041,1996,05,07,08,2.45
0608900041,1996,05,07,09,3.2
0608900041,1996,05,07,10,4.29
0608900041,1996,05,07,11,5.54
0608900041,1996,05,07,12,6.13
0608900041,1996,05,07,13,6.01
0608900041,1996,05,07,14,5.73
0608900041,1996,05,07,15,5.73
0608900041,1996,05,07,16,6.27
0608900041,1996,05,07,17,6.48
0608900041,1996,05,07,18,6.13
0608900041,1996,05,07,19,5.11
0608900041,1996,05,07,20,3.8
0608900041,1996,05,07,21,3.34
0608900041,1996,05,07,22,2.3
0608900041,1996,05,07,23,2.79
0608900041,1996,05,08,00,2.56
0608900041,1996,05,08,01,3.39
0608900041,1996,05,08,02,4.34
0608900041,1996,05,08,03,3.26
0608900041,1996,05,08,04,2.51
0608900041,1996,05,08,05,2.11
0608900041,1996,05,08,06,1.68
0608900041,1996,05,08,07,4.13
0608900041,1996,05,08,08,4.21
0608900041,1996,05,08,09,4.09
0608900041,1996,05,08,10,4.88
0608900041,1996,05,08,11,5.61
0608900041,1996,05,08,12,5.99
0608900041,1996,05,08,13,6.01
0608900041,1996,05,08,14,6.25
0608900041,1996,05,08,15,6.44
0608900041,1996,05,08,16,6.14
0608900041,1996,05,08,17,6.32
0608900041,1996,05,08,18,5.95
0608900041,1996,05,08,19,4.77
0608900041,1996,05,08,20,3.26
0608900041,1996,05,08,21,3.14
0608900041,1996,05,08,22,2.61
0608900041,1996,05,08,23,3.07
0608900041,1996,05,09,00,2.44
0608900041,1996,05,09,01,2.72
0608900041,1996,05,09,02,3.33
0608900041,1996,05,09,03,3.36
0608900041,1996,05,09,04,3.06
0608900041,1996,05,09,05,2.68
0608900041,1996,05,09,06,2.9
0608900041,1996,05,09,07,3.25
0608900041,1996,05,09,08,4.05
0608900041,1996,05,09,09,5.19
0608900041,1996,05,09,10,5.67
0608900041,1996,05,09,11,6.45
0608900041,1996,05,09,12,6.74
0608900041,1996,05,09,13,6.55
0608900041,1996,05,09,14,6.82
0608900041,1996,05,09,15,6.4
0608900041,1996,05,09,16,6.31
0608900041,1996,05,09,17,6.54
0608900041,1996,05,09,18,6.35
0608900041,1996,05,09,19,5
0608900041,1996,05,09,20,4.14
0608900041,1996,05,09,21,4.04
0608900041,1996,05,09,22,4.09
0608900041,1996,05,09,23,3.12
0608900041,1996,05,10,00,2.86
0608900041,1996,05,10,01,2.19
0608900041,1996,05,10,02,1.32
0608900041,1996,05,10,03,0.78
0608900041,1996,05,10,04,2.3
0608900041,1996,05,10,05,4.1
0608900041,1996,05,10,06,4.2
0608900041,1996,05,10,07,4.64
0608900041,1996,05,10,08,4.61
0608900041,1996,05,10,09,4.82
0608900041,1996,05,10,10,5.48
0608900041,1996,05,10,11,6.75
0608900041,1996,05,10,12,6.84
0608900041,1996,05,10,13,7.39
0608900041,1996,05,10,14,7.24
0608900041,1996,05,10,15,6.95
0608900041,1996,05,10,16,7.1
0608900041,1996,05,10,17,7.09
0608900041,1996,05,10,18,6.34
0608900041,1996,05,10,19,3.12
0608900041,1996,05,10,20,2.93
0608900041,1996,05,10,21,3.46
0608900041,1996,05,10,22,3.8
0608900041,1996,05,10,23,5.08
0608900041,1996,05,11,00,5.1
0608900041,1996,05,11,01,4.68
0608900041,1996,05,11,02,4.98
0608900041,1996,05,11,03,4.15
0608900041,1996,05,11,04,4.85
0608900041,1996,05,11,05,4.72
0608900041,1996,05,11,06,4.23
0608900041,1996,05,11,07,4.37
0608900041,1996,05,11,08,4.93
0608900041,1996,05,11,09,5.31
0608900041,1996,05,11,10,5.59
0608900041,1996,05,11,11,5.5
0608900041,1996,05,11,12,5.3
0608900041,1996,05,11,13,4.32
0608900041,1996,05,11,14,4.01
0608900041,1996,05,11,15,3.48
0608900041,1996,05,11,16,3.28
0608900041,1996,05,11,17,3.2
0608900041,1996,05,11,18,1.83
0608900041,1996,05,11,19,1.69
0608900041,1996,05,11,20,1.27
0608900041,1996,05,11,21,0.75
0608900041,1996,05,11,22,0.73
0608900041,1996,05,11,23,0.86
0608900041,1996,05,12,00,1.11
0608900041,1996,05,12,01,0.84
0608900041,1996,05,12,02,0.71
0608900041,1996,05,12,03,0.91
0608900041,1996,05,12,04,1.05
0608900041,1996,05,12,05,1.54
0608900041,1996,05,12,06,1.74
0608900041,1996,05,12,07,2.25
0608900041,1996,05,12,08,2.62
0608900041,1996,05,12,09,3.18
0608900041,1996,05,12,10,4.25
0608900041,1996,05,12,11,4.68
0608900041,1996,05,12,12,4.08
0608900041,1996,05,12,13,3.82
0608900041,1996,05,12,14,4.02
0608900041,1996,05,12,15,3.76
0608900041,1996,05,12,16,3.44
0608900041,1996,05,12,17,2.57
0608900041,1996,05,12,18,2.39
0608900041,1996,05,12,19,2.44
0608900041,1996,05,12,20,2.49
0608900041,1996,05,12,21,2.39
0608900041,1996,05,12,22,2.33
0608900041,1996,05,12,23,2.46
0608900041,1996,05,13,00,1.54
0608900041,1996,05,13,01,1.05
0608900041,1996,05,13,02,0.7
0608900041,1996,05,13,03,0.76
0608900041,1996,05,13,04,0.69
0608900041,1996,05,13,05,0.63
0608900041,1996,05,13,06,0.76
0608900041,1996,05,13,07,0.73
0608900041,1996,05,13,08,0.82
0608900041,1996,05,13,10,2.73
0608900041,1996,05,13,11,3.66
0608900041,1996,05,13,12,3.72
0608900041,1996,05,13,13,2.8
0608900041,1996,05,13,14,2.75
0608900041,1996,05,13,15,3.04
0608900041,1996,05,13,16,3.19
0608900041,1996,05,13,17,3.17
0608900041,1996,05,13,18,3.48
0608900041,1996,05,13,19,3.71
0608900041,1996,05,13,20,3.51
0608900041,1996,05,13,21,2.88
0608900041,1996,05,13,22,2.59
0608900041,1996,05,13,23,1.62
0608900041,1996,05,14,00,1.8
0608900041,1996,05,14,01,1.4
0608900041,1996,05,14,02,1
0608900041,1996,05,14,03,0.95
0608900041,1996,05,14,04,0.73
0608900041,1996,05,14,05,0.64
0608900041,1996,05,14,06,0.85
0608900041,1996,05,14,07,1.25
0608900041,1996,05,14,08,1.52
0608900041,1996,05,14,09,1.94
0608900041,1996,05,14,10,2.03
0608900041,1996,05,14,11,2.28
0608900041,1996,05,14,12,2.46
0608900041,1996,05,14,13,1.88
0608900041,1996,05,14,14,1.78
0608900041,1996,05,14,15,2.05
0608900041,1996,05,14,16,1.87
0608900041,1996,05,14,17,2.09
0608900041,1996,05,14,18,2.17
0608900041,1996,05,14,19,2.14
0608900041,1996,05,14,20,2.1
0608900041,1996,05,14,21,2.09
0608900041,1996,05,14,22,2.37
0608900041,1996,05,14,23,2.26
0608900041,1996,05,15,00,2.24
0608900041,1996,05,15,01,2.24
0608900041,1996,05,15,02,2.24
0608900041,1996,05,15,03,2.35
0608900041,1996,05,15,04,1.95
0608900041,1996,05,15,05,2.06
0608900041,1996,05,15,06,2
0608900041,1996,05,15,07,2.07
0608900041,1996,05,15,08,2.69
0608900041,1996,05,15,09,3.33
0608900041,1996,05,15,10,3.39
0608900041,1996,05,15,11,3.41
0608900041,1996,05,15,12,3.46
0608900041,1996,05,15,13,3.39
0608900041,1996,05,15,14,3.46
0608900041,1996,05,15,15,3.32
0608900041,1996,05,15,16,3.73
0608900041,1996,05,15,17,3.34
0608900041,1996,05,15,18,2.94
0608900041,1996,05,15,19,2.94
0608900041,1996,05,15,20,2.88
0608900041,1996,05,15,21,2.98
0608900041,1996,05,15,22,2.62
0608900041,1996,05,15,23,3.06
0608900041,1996,05,16,00,3
0608900041,1996,05,16,01,2.66
0608900041,1996,05,16,02,2.55
0608900041,1996,05,16,03,2.5
0608900041,1996,05,16,04,1.82
0608900041,1996,05,16,05,1.36
0608900041,1996,05,16,06,1.35
0608900041,1996,05,16,07,2.8
0608900041,1996,05,16,08,2.6
0608900041,1996,05,16,09,2.83
0608900041,1996,05,16,10,2.65
0608900041,1996,05,16,11,2.87
0608900041,1996,05,16,12,3.22
0608900041,1996,05,16,13,2.76
0608900041,1996,05,16,14,2.13
0608900041,1996,05,16,15,3.73
0608900041,1996,05,16,16,3.99
0608900041,1996,05,16,17,3.95
0608900041,1996,05,16,18,3.89
0608900041,1996,05,16,19,3.91
0608900041,1996,05,16,20,3.74
0608900041,1996,05,16,21,3.56
0608900041,1996,05,16,22,3.56
0608900041,1996,05,16,23,3.52
0608900041,1996,05,17,00,3.41
0608900041,1996,05,17,01,3.33
0608900041,1996,05,17,02,3.09
0608900041,1996,05,17,03,2.92
0608900041,1996,05,17,04,2.87
0608900041,1996,05,17,05,2.87
0608900041,1996,05,17,06,2.92
0608900041,1996,05,17,07,2.87
0608900041,1996,05,17,09,3.23
0608900041,1996,05,17,10,2.93
0608900041,1996,05,17,11,2.91
0608900041,1996,05,17,12,3.02
0608900041,1996,05,17,13,3.36
0608900041,1996,05,17,14,3.49
0608900041,1996,05,17,15,3.24
0608900041,1996,05,17,16,2.95
0608900041,1996,05,17,17,3.45
0608900041,1996,05,17,18,3.74
0608900041,1996,05,17,19,3.07
0608900041,1996,05,17,20,3.02
0608900041,1996,05,17,21,3.58
0608900041,1996,05,17,22,3.38
0608900041,1996,05,17,23,2.83
0608900041,1996,05,18,00,2.58
0608900041,1996,05,18,01,2.61
0608900041,1996,05,18,02,2.61
0608900041,1996,05,18,03,2.77
0608900041,1996,05,18,04,2.66
0608900041,1996,05,18,05,2.84
0608900041,1996,05,18,06,2.88
0608900041,1996,05,18,07,2.75
0608900041,1996,05,18,08,3.21
0608900041,1996,05,18,09,3.45
0608900041,1996,05,18,10,3.11
0608900041,1996,05,18,11,3.24
0608900041,1996,05,18,12,3.6
0608900041,1996,05,18,13,3.6
0608900041,1996,05,18,14,3.8
0608900041,1996,05,18,15,3.87
0608900041,1996,05,18,16,3.96
0608900041,1996,05,18,17,4.06
0608900041,1996,05,18,18,3.96
0608900041,1996,05,18,19,3.62
0608900041,1996,05,18,20,3.74
0608900041,1996,05,18,21,2.86
0608900041,1996,05,18,22,1.96
0608900041,1996,05,18,23,1.69
0608900041,1996,05,19,00,1.84
0608900041,1996,05,19,01,1.58
0608900041,1996,05,19,02,1.4
0608900041,1996,05,19,03,1.49
0608900041,1996,05,19,04,1.49
0608900041,1996,05,19,05,1.13
0608900041,1996,05,19,06,1.53
0608900041,1996,05,19,07,2.17
0608900041,1996,05,19,08,3.09
0608900041,1996,05,19,09,3.58
0608900041,1996,05,19,10,3.86
0608900041,1996,05,19,11,4.17
0608900041,1996,05,19,12,4.18
0608900041,1996,05,19,13,4.3
0608900041,1996,05,19,14,4.21
0608900041,1996,05,19,15,4.29
0608900041,1996,05,19,16,4.29
0608900041,1996,05,19,17,4.29
0608900041,1996,05,19,18,3.87
0608900041,1996,05,19,19,2.35
0608900041,1996,05,19,20,1.89
0608900041,1996,05,19,21,2.18
0608900041,1996,05,19,22,2.72
0608900041,1996,05,19,23,2.64
0608900041,1996,05,20,00,2.52
0608900041,1996,05,20,01,2.18
0608900041,1996,05,20,02,1.59
0608900041,1996,05,20,03,1.63
0608900041,1996,05,20,04,1.75
0608900041,1996,05,20,05,2.04
0608900041,1996,05,20,06,2.45
0608900041,1996,05,20,07,2.78
0608900041,1996,05,20,10,4.63
0608900041,1996,05,20,11,5.47
0608900041,1996,05,20,12,5.92
0608900041,1996,05,20,13,6.15
0608900041,1996,05,20,14,4.9
0608900041,1996,05,20,17,6.8
0608900041,1996,05,20,18,3
0608900041,1996,05,20,19,2.64
0608900041,1996,05,20,20,2.53
0608900041,1996,05,20,21,2.25
0608900041,1996,05,20,22,1.84
0608900041,1996,05,20,23,1.17
0608900041,1996,05,21,00,0.97
0608900041,1996,05,21,01,1.7
0608900041,1996,05,21,02,2.01
0608900041,1996,05,21,03,1.95
0608900041,1996,05,21,04,2.2
0608900041,1996,05,21,05,1.94
0608900041,1996,05,21,06,1.33
0608900041,1996,05,21,07,1.79
0608900041,1996,05,21,08,2.34
0608900041,1996,05,21,09,2.25
0608900041,1996,05,21,10,1.24
0608900041,1996,05,21,11,1.63
0608900041,1996,05,21,12,2.12
0608900041,1996,05,21,13,2.3
0608900041,1996,05,21,14,1.95
0608900041,1996,05,21,15,2.23
0608900041,1996,05,21,16,1.79
0608900041,1996,05,21,17,1.94
0608900041,1996,05,21,18,1.82
0608900041,1996,05,21,19,1.18
0608900041,1996,05,21,20,0.87
0608900041,1996,05,21,21,1.1
0608900041,1996,05,21,22,0.57
0608900041,1996,05,21,23,0.39
0608900041,1996,05,22,00,0.97
0608900041,1996,05,22,01,0.71
0608900041,1996,05,22,02,0.83
0608900041,1996,05,22,03,1.51
0608900041,1996,05,22,04,0.62
0608900041,1996,05,22,05,0.73
0608900041,1996,05,22,06,2.45
0608900041,1996,05,22,07,2.51
0608900041,1996,05,22,08,2.74
0608900041,1996,05,22,09,3.01
0608900041,1996,05,22,10,3.28
0608900041,1996,05,22,11,3.43
0608900041,1996,05,22,12,3.32
0608900041,1996,05,22,13,3.5
0608900041,1996,05,22,14,3.61
0608900041,1996,05,22,15,3.52
0608900041,1996,05,22,16,3.6
0608900041,1996,05,22,17,3.67
0608900041,1996,05,22,18,3.41
0608900041,1996,05,22,19,2.41
0608900041,1996,05,22,20,2.57
0608900041,1996,05,22,21,2.3
0608900041,1996,05,22,22,2.38
0608900041,1996,05,22,23,2.45
0608900041,1996,05,23,00,2.69
0608900041,1996,05,23,01,2.86
0608900041,1996,05,23,02,2.95
0608900041,1996,05,23,03,2.7
0608900041,1996,05,23,04,2.29
0608900041,1996,05,23,05,2.55
0608900041,1996,05,23,06,2.14
0608900041,1996,05,23,07,2.66
0608900041,1996,05,23,08,2.91
0608900041,1996,05,23,09,3
0608900041,1996,05,23,10,3.03
0608900041,1996,05,23,11,3.22
0608900041,1996,05,23,12,3.73
0608900041,1996,05,23,13,3.83
0608900041,1996,05,23,14,3.88
0608900041,1996,05,23,15,3.91
0608900041,1996,05,23,16,4.07
0608900041,1996,05,23,17,3.97
0608900041,1996,05,23,18,3.83
0608900041,1996,05,23,19,3.92
0608900041,1996,05,23,20,3.87
0608900041,1996,05,23,21,3.92
0608900041,1996,05,23,22,3.53
0608900041,1996,05,23,23,3.42
0608900041,1996,05,24,00,3.7
0608900041,1996,05,24,01,3.16
0608900041,1996,05,24,02,3.47
0608900041,1996,05,24,03,3.09
0608900041,1996,05,24,04,3.56
0608900041,1996,05,24,05,3.6
0608900041,1996,05,24,06,3.56
0608900041,1996,05,24,07,3.74
0608900041,1996,05,24,08,3.8
0608900041,1996,05,24,09,3.98
0608900041,1996,05,24,10,3.93
0608900041,1996,05,24,11,3.98
0608900041,1996,05,24,12,4
0608900041,1996,05,24,13,4.13
0608900041,1996,05,24,14,4.15
0608900041,1996,05,24,15,4.13
0608900041,1996,05,24,16,4.21
0608900041,1996,05,24,17,4.33
0608900041,1996,05,24,18,4.1
0608900041,1996,05,24,19,2.63
0608900041,1996,05,24,20,1.96
0608900041,1996,05,24,21,1.88
0608900041,1996,05,24,22,2.18
0608900041,1996,05,24,23,2.42
0608900041,1996,05,25,00,3.67
0608900041,1996,05,25,01,3.51
0608900041,1996,05,25,02,2.35
0608900041,1996,05,25,03,2.24
0608900041,1996,05,25,04,2.69
0608900041,1996,05,25,05,3.05
0608900041,1996,05,25,06,2.96
0608900041,1996,05,25,07,3.3
0608900041,1996,05,25,08,3.75
0608900041,1996,05,25,09,3.8
0608900041,1996,05,25,10,3.76
0608900041,1996,05,25,11,3.93
0608900041,1996,05,25,12,3.94
0608900041,1996,05,25,13,3.94
0608900041,1996,05,25,14,4.02
0608900041,1996,05,25,15,4.19
0608900041,1996,05,25,16,4.38
0608900041,1996,05,25,17,4.64
0608900041,1996,05,25,18,4.12
0608900041,1996,05,25,19,2.57
0608900041,1996,05,25,20,1.85
0608900041,1996,05,25,21,1.14
0608900041,1996,05,25,22,0.85
0608900041,1996,05,25,23,0.63
0608900041,1996,05,26,00,1.56
0608900041,1996,05,26,01,1.91
0608900041,1996,05,26,02,2.54
0608900041,1996,05,26,03,2.14
0608900041,1996,05,26,04,0.94
0608900041,1996,05,26,05,1.14
0608900041,1996,05,26,06,0.89
0608900041,1996,05,26,07,0.92
0608900041,1996,05,26,08,2.11
0608900041,1996,05,26,09,2.62
0608900041,1996,05,26,10,3.24
0608900041,1996,05,26,11,3.65
0608900041,1996,05,26,12,3.89
0608900041,1996,05,26,13,3.63
0608900041,1996,05,26,14,3.57
0608900041,1996,05,26,15,3.88
0608900041,1996,05,26,16,3.8
0608900041,1996,05,26,17,3.73
0608900041,1996,05,26,18,2.72
0608900041,1996,05,26,19,2.83
0608900041,1996,05,26,20,3.48
0608900041,1996,05,26,21,3.5
0608900041,1996,05,26,22,2.88
0608900041,1996,05,26,23,2.47
0608900041,1996,05,27,00,2.27
0608900041,1996,05,27,01,2.5
0608900041,1996,05,27,02,3.02
0608900041,1996,05,27,03,2.57
0608900041,1996,05,27,04,2.32
0608900041,1996,05,27,05,1.81
0608900041,1996,05,27,06,1.97
0608900041,1996,05,27,07,2.23
0608900041,1996,05,27,08,2.8
0608900041,1996,05,27,09,3.72
0608900041,1996,05,27,10,4.09
0608900041,1996,05,27,11,4.3
0608900041,1996,05,27,12,4.6
0608900041,1996,05,27,13,4.35
0608900041,1996,05,27,14,4.52
0608900041,1996,05,27,15,4.65
0608900041,1996,05,27,16,4.7
0608900041,1996,05,27,17,4.79
0608900041,1996,05,27,18,4.14
0608900041,1996,05,27,19,2.41
0608900041,1996,05,27,20,2.95
0608900041,1996,05,27,21,3.18
0608900041,1996,05,27,22,3.14
0608900041,1996,05,27,23,3.05
0608900041,1996,05,28,00,2.75
0608900041,1996,05,28,01,2.57
0608900041,1996,05,28,02,2.58
0608900041,1996,05,28,03,2.52
0608900041,1996,05,28,04,2.83
0608900041,1996,05,28,05,2.38
0608900041,1996,05,28,06,1.9
0608900041,1996,05,28,07,2.47
0608900041,1996,05,28,08,3.07
0608900041,1996,05,28,09,3.15
0608900041,1996,05,28,10,3.31
0608900041,1996,05,28,11,4.57
0608900041,1996,05,28,13,4.22
0608900041,1996,05,28,14,4.72
0608900041,1996,05,28,15,4.59
0608900041,1996,05,28,16,5.24
0608900041,1996,05,28,17,4.97
0608900041,1996,05,28,18,4.98
0608900041,1996,05,28,19,4.6
0608900041,1996,05,28,20,3.17
0608900041,1996,05,28,21,2.89
0608900041,1996,05,28,22,3.63
0608900041,1996,05,28,23,3.53
0608900041,1996,05,29,00,3.46
0608900041,1996,05,29,01,3.03
0608900041,1996,05,29,02,3.16
0608900041,1996,05,29,03,3.35
0608900041,1996,05,29,04,3.27
0608900041,1996,05,29,05,2.96
0608900041,1996,05,29,06,3.04
0608900041,1996,05,29,07,3.01
0608900041,1996,05,29,08,3.2
0608900041,1996,05,29,09,3.29
0608900041,1996,05,29,10,3.42
0608900041,1996,05,29,11,3.82
0608900041,1996,05,29,12,4.22
0608900041,1996,05,29,13,4.47
0608900041,1996,05,29,14,4.35
0608900041,1996,05,29,15,4.39
0608900041,1996,05,29,16,4.4
0608900041,1996,05,29,17,4.63
0608900041,1996,05,29,18,4.66
0608900041,1996,05,29,19,4.36
0608900041,1996,05,29,20,4.05
0608900041,1996,05,29,21,2.36
0608900041,1996,05,29,22,2.05
0608900041,1996,05,29,23,3.11
0608900041,1996,05,30,00,2.95
0608900041,1996,05,30,01,2.88
0608900041,1996,05,30,02,2.25
0608900041,1996,05,30,03,2.13
0608900041,1996,05,30,04,2.57
0608900041,1996,05,30,05,2.6
0608900041,1996,05,30,06,2.38
0608900041,1996,05,30,07,2.37
0608900041,1996,05,30,08,3.14
0608900041,1996,05,30,09,3.75
0608900041,1996,05,30,10,3.9
0608900041,1996,05,30,11,4.46
0608900041,1996,05,30,12,4.46
0608900041,1996,05,30,13,4.47
0608900041,1996,05,30,14,4.19
0608900041,1996,05,30,15,4.11
0608900041,1996,05,30,16,4.52
0608900041,1996,05,30,17,4.44
0608900041,1996,05,30,18,4.3
0608900041,1996,05,30,19,3.71
0608900041,1996,05,30,20,2.85
0608900041,1996,05,30,21,3.46
0608900041,1996,05,30,22,4.02
0608900041,1996,05,30,23,3.03
0608900041,1996,05,31,00,3.02
0608900041,1996,05,31,01,2.15
0608900041,1996,05,31,02,1.67
0608900041,1996,05,31,03,1.3
0608900041,1996,05,31,04,0.95
0608900041,1996,05,31,05,0.23
0608900041,1996,05,31,06,0.31
0608900041,1996,05,31,07,1.03
0608900041,1996,05,31,08,2.15
0608900041,1996,05,31,09,3.2
0608900041,1996,05,31,10,4.11
0608900041,1996,05,31,11,4.42
0608900041,1996,05,31,12,4.63
0608900041,1996,05,31,13,4.52
0608900041,1996,05,31,14,4.62
0608900041,1996,05,31,15,4.66
0608900041,1996,05,31,16,4.22
0608900041,1996,05,31,17,4.05
0608900041,1996,05,31,18,3.67
0608900041,1996,05,31,19,1.6
0608900041,1996,05,31,20,1.34
0608900041,1996,05,31,21,0.92
0608900041,1996,05,31,22,1.82
0608900041,1996,05,31,23,2.47
0608900041,1996,06,01,00,0.02
0608900041,1996,06,01,01,0.02
0608900041,1996,06,01,02,0.02
0608900041,1996,06,01,03,0.03
0608900041,1996,06,01,04,0.03
0608900041,1996,06,01,05,0.03
0608900041,1996,06,01,06,0.03
0608900041,1996,06,01,07,0.04
0608900041,1996,06,01,08,0.04
0608900041,1996,06,01,09,0.04
0608900041,1996,06,01,10,0.04
0608900041,1996,06,01,11,0.04
0608900041,1996,06,01,12,0.05
0608900041,1996,06,01,13,0.05
0608900041,1996,06,01,14,0.06
0608900041,1996,06,01,15,0.05
0608900041,1996,06,01,16,0.04
0608900041,1996,06,01,17,0.04
0608900041,1996,06,01,18,0.04
0608900041,1996,06,01,19,0.01
0608900041,1996,06,01,20,0.01
0608900041,1996,06,01,21,0.01
0608900041,1996,06,01,22,0.02
0608900041,1996,06,01,23,0.01
0608900041,1996,06,02,00,0.02
0608900041,1996,06,02,01,0.02
0608900041,1996,06,02,02,0.02
0608900041,1996,06,02,03,0.02
0608900041,1996,06,02,04,0.01
0608900041,1996,06,02,05,0.02
0608900041,1996,06,02,06,0.02
0608900041,1996,06,02,07,0.02
0608900041,1996,06,02,08,0.03
0608900041,1996,06,02,09,0.04
0608900041,1996,06,02,10,0.05
0608900041,1996,06,02,11,0.06
0608900041,1996,06,02,12,0.05
0608900041,1996,06,02,13,0.06
0608900041,1996,06,02,14,0.06
0608900041,1996,06,02,15,0.05
0608900041,1996,06,02,16,0.05
0608900041,1996,06,02,17,0.05